Location: Unspecified
(35.7250°N, 0.0000°E)
Time: 03:14:47
(UTC+00:00)

Tiros 1 - All Passes

Search period start: 18 June 2019 00:00
Search period end: 28 June 2019 00:00
Orbit: 631 x 664 km, 48.4° (Epoch: 17 June)

Date Brightness Start Highest point End Pass type
(mag) Time Alt. Az. Time Alt. Az. Time Alt. Az.
18 Jun - 01:03:05 10° WSW 01:07:37 48° NNW 01:12:07 10° NE visible
18 Jun - 02:47:19 10° WNW 02:50:39 19° NNW 02:53:58 10° NE visible
18 Jun - 04:30:56 10° NW 04:34:11 18° N 04:37:25 10° NE daylight
18 Jun - 06:12:50 10° NW 06:17:16 44° NNE 06:21:42 10° ESE daylight
18 Jun - 07:55:12 10° WNW 07:59:21 34° SW 08:03:32 10° SSE daylight
18 Jun - 22:08:43 10° SE 22:09:55 11° SE 22:11:06 10° ESE night (unlit)
18 Jun - 23:46:48 10° SW 23:51:29 74° SE 23:56:07 10° ENE visible
19 Jun - 01:30:00 10° W 01:34:00 28° NNW 01:38:00 10° NE visible
19 Jun - 03:14:23 10° NW 03:17:23 17° N 03:20:22 10° NE visible
19 Jun - 04:56:58 10° NW 05:00:49 25° NNE 05:04:39 10° ENE daylight
19 Jun - 06:38:49 10° NW 06:43:27 88° SSW 06:48:05 10° SE daylight
19 Jun - 08:22:49 10° W 08:25:06 14° SW 08:27:22 10° SSW daylight
19 Jun - 22:31:37 10° SSW 22:35:36 28° SE 22:39:35 10° ENE visible
20 Jun - 00:13:02 10° WSW 00:17:37 52° NNW 00:22:10 10° NE visible
20 Jun - 01:57:12 10° WNW 02:00:36 20° NNW 02:03:59 10° NE visible
20 Jun - 03:40:56 10° NW 03:44:08 18° N 03:47:20 10° NE visible
20 Jun - 05:22:52 10° NW 05:27:16 41° NNE 05:31:38 10° E daylight
20 Jun - 07:05:10 10° WNW 07:09:24 37° SW 07:13:39 10° SSE daylight
20 Jun - 22:56:50 10° SW 23:01:30 67° SE 23:06:08 10° ENE visible
21 Jun - 00:39:53 10° W 00:43:58 29° NNW 00:48:03 10° NE visible
21 Jun - 02:24:18 10° NW 02:27:20 17° N 02:30:20 10° NE visible
21 Jun - 04:07:00 10° NW 04:10:47 24° NNE 04:14:33 10° ENE visible
21 Jun - 05:48:50 10° NW 05:53:29 85° NE 05:58:06 10° SE daylight
21 Jun - 07:32:32 10° W 07:35:09 15° SW 07:37:46 10° SSW daylight
21 Jun - 21:41:46 10° S 21:45:39 26° SE 21:49:30 10° ENE visible
21 Jun - 23:22:59 10° WSW 23:27:37 56° NNW 23:32:12 10° NE visible
22 Jun - 01:07:05 10° WNW 01:10:34 20° NNW 01:14:00 10° NE visible
22 Jun - 02:50:55 10° NW 02:54:05 18° N 02:57:14 10° NE visible
22 Jun - 04:32:54 10° NW 04:37:15 39° NNE 04:41:35 10° E daylight
22 Jun - 06:15:07 10° WNW 06:19:27 40° SW 06:23:46 10° SSE daylight
22 Jun - 22:06:52 10° SW 22:11:31 62° SE 22:16:08 10° ENE visible
22 Jun - 23:49:47 10° W 23:53:57 31° NNW 23:58:06 10° NE visible
23 Jun - 01:34:13 10° NW 01:37:17 17° N 01:40:19 10° NE visible
23 Jun - 03:17:02 10° NW 03:20:45 23° NNE 03:24:27 10° ENE visible
23 Jun - 04:58:51 10° NW 05:03:30 79° NE 05:08:06 10° ESE daylight
23 Jun - 06:42:19 10° W 06:45:13 17° SW 06:48:07 10° S daylight
23 Jun - 20:51:57 10° S 20:55:42 23° SE 20:59:24 10° E visible
23 Jun - 22:32:56 10° WSW 22:37:36 61° NNW 22:42:14 10° NE visible
24 Jun - 00:16:57 10° WNW 00:20:30 21° NNW 00:24:03 10° NE visible
24 Jun - 02:00:53 10° NW 02:04:02 18° N 02:07:09 10° NE visible
24 Jun - 03:42:56 10° NW 03:47:15 37° NNE 03:51:32 10° E visible
24 Jun - 05:25:05 10° WNW 05:29:29 44° SW 05:33:52 10° SSE daylight
24 Jun - 21:16:54 10° SW 21:21:33 56° SE 21:26:08 10° ENE visible
24 Jun - 22:59:40 10° W 23:03:55 32° NNW 23:08:08 10° NE visible
25 Jun - 00:44:07 10° NW 00:47:13 17° N 00:50:17 10° NE visible
25 Jun - 02:27:03 10° NW 02:30:43 22° NNE 02:34:22 10° ENE visible
25 Jun - 04:08:52 10° NW 04:13:30 73° NE 04:18:06 10° ESE visible
25 Jun - 05:52:08 10° W 05:55:16 18° SW 05:58:25 10° S daylight
25 Jun - 20:02:09 10° S 20:05:44 21° SE 20:09:19 10° E visible
25 Jun - 21:42:54 10° WSW 21:47:36 66° NNW 21:52:16 10° NE visible
25 Jun - 23:26:49 10° WNW 23:30:27 22° NNW 23:34:04 10° NE visible
26 Jun - 01:10:51 10° NW 01:13:58 17° N 01:17:05 10° NE visible
26 Jun - 02:52:58 10° NW 02:57:14 35° NNE 03:01:28 10° E visible
26 Jun - 04:35:04 10° WNW 04:39:31 49° SW 04:43:58 10° SSE daylight
26 Jun - 20:26:57 10° SSW 20:31:33 51° SE 20:36:08 10° ENE visible
26 Jun - 22:09:34 10° W 22:13:53 34° NNW 22:18:11 10° NE visible
26 Jun - 23:54:01 10° NW 23:57:10 17° N 00:00:17 10° NE visible
27 Jun - 01:37:03 10° NW 01:40:41 22° NNE 01:44:16 10° ENE visible
27 Jun - 03:18:53 10° NW 03:23:31 67° NE 03:28:06 10° ESE visible
27 Jun - 05:01:58 10° W 05:05:20 20° SW 05:08:41 10° S daylight
27 Jun - 19:12:22 10° S 19:15:46 20° SE 19:19:10 10° E daylight
27 Jun - 20:52:52 10° WSW 20:57:36 71° NW 21:02:18 10° NE visible
27 Jun - 22:36:42 10° WNW 22:40:25 22° NNW 22:44:07 10° NE visible
